Regional Weather Roundup
Issued by NWS

Home | Current Version | Previous Version | Text Only | Print | Product List | Glossary Off
Versions: 1 2 3 4 5 6 7 8 9 10 11 12 13 14 15 16 17 18 19 20 21 22 23 24 25 26 27 28 29 30 31 32 33 34 35 36 37 38 39 40 41 42 43 44 45 46 47 48 49 50

000
ASUS43 KTOP 100008
RWRKS

WEATHER ROUNDUP FOR KANSAS
NATIONAL WEATHER SERVICE GOODLAND KS
600 PM CST FRI DEC 09 2016

NOTE:  "FAIR" INDICATES FEW OR NO CLOUDS BELOW 12,000 FEET WITH NO
SIGNIFICANT WEATHER AND/OR OBSTRUCTIONS TO VISIBILITY.

KSZ001>006-013>018-027>032-041>047-100100-
NORTHWEST KANSAS

CITY           SKY/WX    TMP DP  RH WIND       PRES   REMARKS
GOODLAND       CLEAR     27  21  78 CALM      30.20R
6HR MIN TEMP:  27; 6HR MAX TEMP:  38;

HAYS           CLEAR     22  12  65 SE8       30.37R
HILL CITY      CLEAR     26  13  57 SE7       30.33R
6HR MIN TEMP:  26; 6HR MAX TEMP:  34;

RUSSELL        CLEAR     22  11  62 S7        30.38R
6HR MIN TEMP:  22; 6HR MAX TEMP:  28;

$$

KSZ061>065-074>080-084>089-100100-
SOUTHWEST KANSAS

CITY           SKY/WX    TMP DP  RH WIND       PRES   REMARKS
DODGE CITY     CLEAR     28  16  60 SE9       30.29R
6HR MIN TEMP:  27; 6HR MAX TEMP:  35;

ELKHART          N/A     33  17  51 S7          N/A
GARDEN CITY    CLEAR     29  18  63 SE9       30.25R
6HR MIN TEMP:  29; 6HR MAX TEMP:  38;

GREAT BEND     CLEAR     24  12  60 S10       30.38S WCI  14
LIBERAL        CLOUDY    36  19  51 E6        30.25R
PRATT          CLEAR     22  10  59 SE9       30.39S
6HR MIN TEMP:  22; 6HR MAX TEMP:  25;

$$

KSZ066>073-081>083-090>101-100100-
SOUTHEAST KANSAS

CITY           SKY/WX    TMP DP  RH WIND       PRES   REMARKS
CHANUTE        CLOUDY    29  13  51 SE7       30.50S
6HR MIN TEMP:  28; 6HR MAX TEMP:  31;

COFFEYVILLE    CLOUDY    30  15  53 SE3       30.53R
6HR MIN TEMP:  28; 6HR MAX TEMP:  31;

HUTCHINSON     CLOUDY    28  12  51 S10       30.44R WCI  19
6HR MIN TEMP:  25; 6HR MAX TEMP:  29;

MEDICINE LODGE   N/A     25  11  55 SE6       30.42R
NEWTON         CLOUDY    26  13  57 S8        30.46R
PARSONS        CLOUDY    30  14  51 SE5       30.52S
6HR MIN TEMP:  28; 6HR MAX TEMP:  31;

WICHITA INTL   CLOUDY    28  13  53 S6        30.46R
6HR MIN TEMP:  26; 6HR MAX TEMP:  29;

WICHITA JABRA  CLOUDY    27  12  53 S9        30.46R
6HR MIN TEMP:  25; 6HR MAX TEMP:  28;

WICHITA MCCONL CLOUDY    28  11  50 SW8       30.46R
WINFIELD       CLOUDY    28  13  53 SE8       30.47S
6HR MIN TEMP:  27; 6HR MAX TEMP:  29;

$$

KSZ007>012-019>026-033>040-048>060-102>105-100100-
NORTHEAST KANSAS

CITY           SKY/WX    TMP DP  RH WIND       PRES   REMARKS
CONCORDIA      CLOUDY    25  15  66 SE3       30.46R
6HR MIN TEMP:  22; 6HR MAX TEMP:  25;

EMPORIA        CLOUDY    27  12  53 S10       30.47S WCI  17
6HR MIN TEMP:  26; 6HR MAX TEMP:  29;

LAWRENCE       CLOUDY    26  16  65 E8        30.53S
6HR MIN TEMP:  23; 6HR MAX TEMP:  28;

MANHATTAN      CLOUDY    28  13  53 SE5       30.49R
6HR MIN TEMP:  26; 6HR MAX TEMP:  29;

MARYSVILLE     CLOUDY    27  14  59 SE7       30.48S
OLATHE IND     CLOUDY    26  13  57 E7        30.53R
6HR MIN TEMP:  24; 6HR MAX TEMP:  27; 6HR PCP: TRACE;

OLATHE EXE     CLOUDY    25  11  55 E5        30.53R
6HR MIN TEMP:  22; 6HR MAX TEMP:  26;

SALINA         CLOUDY    29  14  53 S6        30.46R
6HR MIN TEMP:  26; 6HR MAX TEMP:  29;

TOPEKA BILLARD CLOUDY    28  14  55 E7        30.52S
6HR MIN TEMP:  25; 6HR MAX TEMP:  28;

TOPEKA FORBES  CLOUDY    28  14  55 E6        30.50S
6HR MIN TEMP:  25; 6HR MAX TEMP:  28;

$$



USA.gov is the U.S. government's official web portal to all federal, state and local government web resources and services.